WA0SOP Weather Reports


time (UTC)temp
F
wind
direction
speed
knots
gust
knots
rain 1hr
in
rain 24hr
in
rain mn
in
humidity
%
barometer
mb
20260906194558 79 105 7.0 0.0 0.00 0.00 0.20 51 1011.6
20260906193050 78 89 7.0 0.0 0.00 0.00 0.20 53 1011.9
20260906191512 76 93 11.3 0.0 0.00 0.00 0.20 55 1012.2
20260906190031 75 90 9.6 0.0 0.00 0.00 0.20 58 1012.6
20260906184624 74 71 9.6 0.0 0.00 0.00 0.20 57 1012.6
20260906183004 73 79 6.1 0.0 0.00 0.00 0.00 60 1012.9
20260906181524 72 29 4.3 0.0 0.00 0.00 0.00 62 1013.4
20260906180040 72 350 3.5 0.0 0.00 0.00 0.00 64 1013.9
20260906174558 71 49 5.2 0.0 0.00 0.00 0.00 69 1013.7
20260906173010 69 38 7.8 0.0 0.00 0.00 0.00 68 1014.0
20260906171526 69 26 7.0 0.0 0.00 0.00 0.00 68 1014.2
20260906170048 68 349 7.0 0.0 0.00 0.00 0.00 66 1014.7
20260906164552 68 312 4.3 0.0 0.00 0.00 0.00 65 1014.8
20260906163108 68 343 2.6 0.0 0.00 0.00 0.00 64 1015.4
20260906161617 69 279 0.9 0.0 0.00 0.00 0.00 62 1015.2
20260906160002 70 260 1.7 0.0 0.00 0.00 0.00 61 1015.2
20260906154512 70 304 0.9 0.0 0.00 0.00 0.00 61 1014.7
20260906153031 70 73 7.8 0.0 0.00 0.00 0.00 60 1014.4
20260906151544 71 66 6.1 0.0 0.00 0.00 0.00 61 1014.1
20260906150027 71 117 1.7 0.0 0.00 0.00 0.00 61 1014.2
20260906144537 71 69 2.6 0.0 0.00 0.00 0.00 59 1013.2
20260906143058 71 141 0.9 0.0 0.00 0.00 0.00 59 1013.6
20260906141623 71 142 1.7 0.0 0.00 0.00 0.00 58 1013.7
20260906140012 72 116 3.5 0.0 0.00 0.00 0.00 58 1013.1
20260906134511 71 346 0.9 0.0 0.00 0.00 0.00 57 1013.0
20260906133029 71 345 0.0 0.0 0.00 0.00 0.00 57 1012.7
20260906131545 71 345 0.9 0.0 0.00 0.00 0.00 56 1012.4
20260906130112 71 337 0.0 0.0 0.00 0.00 0.00 56 1011.9
20260906124610 71 313 0.9 0.0 0.00 0.00 0.00 55 1012.0
20260906123029 72 274 0.9 0.0 0.00 0.00 0.00 55 1011.8
20260906121531 72 278 1.7 0.0 0.00 0.00 0.00 55 1011.8
20260906120036 73 245 3.5 0.0 0.00 0.00 0.00 57 1011.4
20260906114612 74 219 2.6 0.0 0.00 0.00 0.00 62 1011.3
20260906113011 74 213 0.9 0.0 0.00 0.00 0.00 65 1011.3
20260906111517 73 234 0.0 0.0 0.00 0.00 0.00 66 1010.8
20260906110039 73 291 1.7 0.0 0.00 0.00 0.00 66 1010.8
20260906104532 73 178 1.7 0.0 0.00 0.00 0.00 65 1010.1
20260906103050 73 128 2.6 0.0 0.00 0.00 0.00 65 1009.4
20260906101549 73 134 1.7 0.0 0.00 0.00 0.00 65 1009.5
20260906100107 73 145 1.7 0.0 0.00 0.00 0.00 65 1009.4
20260906094512 73 145 1.7 0.0 0.00 0.00 0.00 64 1009.7
20260906093010 73 136 0.9 0.0 0.00 0.00 0.00 64 1009.6
20260906091527 74 134 1.7 0.0 0.00 0.00 0.00 64 1009.5
20260906090046 74 121 2.6 0.0 0.00 0.00 0.00 63 1009.4
20260906084556 74 126 2.6 0.0 0.00 0.00 0.00 63 1009.3
20260906083009 74 130 1.7 0.0 0.00 0.00 0.00 62 1009.2
20260906081510 74 146 2.6 0.0 0.00 0.00 0.00 62 1009.5
20260906080031 75 159 3.5 0.0 0.00 0.00 0.00 61 1010.0
20260906074544 75 115 2.6 0.0 0.00 0.00 0.00 61 1009.9
20260906073057 75 127 2.6 0.0 0.00 0.00 0.00 61 1009.8
20260906071513 75 149 3.5 0.0 0.00 0.00 0.00 60 1009.8
20260906070001 75 137 3.5 0.0 0.00 0.00 0.00 60 1010.0
20260906064532 76 138 3.5 0.0 0.00 0.00 0.00 59 1010.0
20260906063028 76 140 3.5 0.0 0.00 0.00 0.00 59 1010.1
20260906061534 76 142 3.5 0.0 0.00 0.00 0.00 59 1010.3
20260906060043 76 148 2.6 0.0 0.00 0.00 0.00 59 1010.5
20260906054542 76 113 3.5 0.0 0.00 0.00 0.00 59 1010.5
20260906053105 76 113 4.3 0.0 0.00 0.00 0.00 58 1010.5
20260906051610 76 111 5.2 0.0 0.00 0.00 0.00 58 1010.3
20260906050056 76 107 4.3 0.0 0.00 0.00 0.00 59 1011.0
20260906044610 76 105 4.3 0.0 0.00 0.00 0.01 59 1011.0
20260906043023 77 117 5.2 0.0 0.00 0.00 0.01 59 1011.0
20260906041523 76 109 4.3 0.0 0.00 0.00 0.01 58 1011.2
20260906040051 76 123 3.5 0.0 0.00 0.00 0.01 58 1011.2
20260906034609 77 118 2.6 0.0 0.00 0.00 0.01 57 1011.2
20260906033005 77 122 2.6 0.0 0.00 0.00 0.01 56 1011.1
20260906031518 78 130 1.7 0.0 0.00 0.00 0.01 56 1011.1
20260906030023 77 113 3.5 0.0 0.00 0.00 0.01 57 1011.1
20260906024532 78 82 3.5 0.0 0.00 0.00 0.01 56 1011.1
20260906023039 77 81 2.6 0.0 0.00 0.00 0.01 57 1011.1
20260906021541 78 82 2.6 0.0 0.00 0.00 0.01 56 1010.8
20260906020041 79 82 2.6 0.0 0.00 0.00 0.01 56 1010.6
20260906014554 80 82 3.5 0.0 0.00 0.00 0.01 56 1010.0
20260906013047 80 119 2.6 0.0 0.00 0.00 0.01 55 1009.7
20260906011606 81 120 2.6 0.0 0.00 0.00 0.01 55 1009.1
20260906010020 82 126 1.7 0.0 0.00 0.00 0.01 54 1009.0
20260906004526 83 129 2.6 0.0 0.00 0.00 0.01 54 1008.6
20260906003024 83 148 3.5 0.0 0.00 0.00 0.01 54 1008.6
20260906001530 85 151 3.5 0.0 0.00 0.00 0.01 53 1008.3
20260906000053 85 159 2.6 0.0 0.00 0.00 0.01 52 1008.5
20260905234609 86 182 3.5 0.0 0.00 0.00 0.01 52 1008.4
20260905233005 87 180 5.2 0.0 0.00 0.00 0.01 51 1008.1
20260905231521 88 173 9.6 0.0 0.00 0.00 0.01 49 1007.9
20260905230029 88 180 7.0 0.0 0.00 0.00 0.01 48 1007.7
20260905224537 88 152 8.7 0.0 0.00 0.00 0.01 46 1007.7
20260905223044 89 213 10.4 0.0 0.00 0.00 0.01 45 1007.8
20260905221551 90 169 9.6 0.0 0.00 0.00 0.01 45 1007.7
20260905220058 90 183 13.0 0.0 0.00 0.00 0.01 44 1007.7
20260905214603 90 183 12.2 0.0 0.00 0.00 0.01 43 1007.9
20260905213108 91 178 12.2 0.0 0.00 0.00 0.01 43 1008.0
20260905211611 91 182 11.3 0.0 0.00 0.00 0.01 42 1007.6
20260905210010 92 150 10.4 0.0 0.00 0.00 0.01 41 1007.6
20260905204525 92 163 10.4 0.0 0.00 0.00 0.01 40 1008.0
20260905203028 92 173 10.4 0.0 0.00 0.00 0.01 40 1007.7
20260905201549 91 180 11.3 0.0 0.00 0.00 0.01 43 1007.7
20260905200100 90 144 12.2 0.0 0.00 0.00 0.01 38 1008.1